Date,TemperatureHighF,TemperatureAvgF,TemperatureLowF,DewpointHighF,DewpointAvgF,DewpointLowF,HumidityHigh,HumidityAvg,HumidityLow,PressureMaxIn,PressureMinIn,WindSpeedMaxMPH,WindSpeedAvgMPH,GustSpeedMaxMPH,PrecipitationSumIn
2013-4-1,52,41,32,46,35,25,91,80,63,30.01,29.84,14,3,15,0.00
2013-4-2,55,38,28,26,21,14,74,53,29,30.14,30.01,16,2,17,0.00
2013-4-3,59,38,22,29,19,12,77,48,26,30.27,30.14,14,2,15,0.00
2013-4-4,46,35,27,31,21,12,86,60,36,30.26,29.96,9,2,9,0.00
2013-4-5,68,47,34,43,34,26,90,66,34,30.06,29.92,12,2,12,0.00
2013-4-6,77,51,29,39,32,24,84,53,23,30.19,30.07,10,2,10,0.00
2013-4-7,77,58,44,46,38,30,64,48,32,30.11,30.02,28,3,28,0.00
2013-4-8,80,62,46,52,44,37,76,54,35,30.11,30.01,16,3,17,0.00
2013-4-9,85,65,47,58,48,41,82,57,35,30.18,30.06,13,2,13,0.00
2013-4-10,92,69,50,61,50,42,81,54,28,30.11,29.94,13,3,14,0.00
2013-4-11,88,69,52,60,51,45,81,56,26,29.96,29.72,11,2,11,0.00
2013-4-12,68,58,46,57,48,33,91,71,39,29.90,29.63,15,4,16,0.00
2013-4-13,69,54,42,40,35,28,72,50,31,30.03,29.89,36,5,36,0.00
2013-4-14,82,59,35,46,37,27,78,47,23,30.10,29.97,11,2,11,0.00
2013-4-15,64,54,49,52,48,44,89,81,63,30.16,30.03,14,2,14,0.00
2013-4-16,90,67,53,63,54,49,88,66,37,30.25,30.12,12,2,12,0.00
2013-4-17,79,62,56,62,56,52,92,81,56,30.27,30.11,8,1,9,0.00
2013-4-18,81,68,57,62,55,52,83,65,44,30.12,29.92,36,3,36,0.00
2013-4-19,69,57,38,61,50,34,88,78,66,29.95,29.68,36,7,36,0.00
2013-4-20,61,44,33,35,30,24,85,59,32,30.30,29.95,36,10,36,0.00
2013-4-21,71,48,29,39,31,22,82,54,29,30.42,30.29,36,3,36,0.00
2013-4-22,72,52,37,41,32,24,71,49,28,30.37,30.21,36,3,36,0.00
2013-4-23,80,58,39,46,36,24,70,47,27,30.23,30.03,12,1,12,0.00
2013-4-24,77,58,40,55,46,36,86,65,41,30.18,29.92,21,4,21,0.00
2013-4-25,69,48,32,41,32,26,86,58,27,30.32,30.18,15,2,16,0.00
2013-4-26,75,52,31,43,34,26,82,53,29,30.40,30.29,10,1,10,0.00
2013-4-27,69,54,42,46,40,32,79,61,41,30.34,30.17,8,1,8,0.00
2013-4-28,62,54,49,51,47,45,90,79,65,30.18,29.98,13,2,13,0.00
2013-4-29,71,57,49,57,50,45,88,77,57,30.05,29.98,9,1,9,0.00
2013-4-30,86,63,44,61,51,41,92,69,40,30.19,30.02,12,1,12,0.00